Location: San Vito
(41.8833°N, 12.9833°E)
Time: 08:47:07
(UTC+00:00)

Cosmos 1766 Rocket - Pass Details

Date: 17 November 2019
Orbit: 606 x 632 km, 82.5° (Epoch: 06 December)

Event Time Altitude Azimuth Distance (km) Brightness Sun altitude
Rises 05:01:46 0° 215° (SW) 2,850 6.8 -10.9°
Reaches altitude 10° 05:04:16 10° 228° (SW) 1,952 5.8 -10.5°
Maximum altitude 05:07:53 26° 286° (WNW) 1,208 4.5 -9.8°
Drops below altitude 10° 05:11:33 10° 343° (NNW) 1,970 5.8 -9.2°
Sets 05:14:06 0° 357° (N) 2,883 6.8 -8.7°
